Preview of NWS' New Version of Forecast
This preview is not operational and should not be used for support decisions.

Regional Weather Roundup (RWR)

Issued by National Weather Service (NWS)

                            
000
ASUS45 KBOU 180410
RWRCO 

WEATHER ROUNDUP FOR COLORADO
NATIONAL WEATHER SERVICE DENVER/BOULDER CO
1000 PM MDT WED JUL 17 2019

NOTE: "FAIR" INDICATES FEW OR NO CLOUDS BELOW 12000 FEET WITH NO
SIGNIFICANT WEATHER AND/OR OBSTRUCTIONS TO VISIBILITY.

COZ001>005-013-030-031-180500-
...NORTHWEST COLORADO...
  
CITY           SKY/WX    TMP DP  RH WIND       PRES   REMARKS
CRAIG          FAIR      62  38  40 CALM      30.09R                  
HAYDEN         FAIR      71  32  23 SW6       30.14R                  
MEEKER         FAIR      67  29  24 VRB3      30.11R                  
RANGELY        FAIR      78  29  17 SW5       30.00R                  
RABBIT EARS PA NOT AVBL                                               
STEAMBOAT SPGS FAIR      66  37  33 CALM      30.15R                  
WALDEN         NOT AVBL                                               
$$

COZ006>008-011-180500-
...WEST CENTRAL VALLEYS...
  
CITY           SKY/WX    TMP DP  RH WIND       PRES   REMARKS
GRAND JUNCTION FAIR      80  28  15 E5        29.96R                  
MONTROSE       FAIR      74  35  24 SE8       30.10R                  
EAGLE          FAIR      69  32  25 E7        30.16R                  
RIFLE          FAIR      73  31  21 E10       30.03R                  
DELTA          FAIR      84  23  10 W3        30.02R                  
NUCLA          FAIR      81  23  12 SW5       30.13R                  
$$

COZ017>023-064>068-180500-
...SOUTHWEST COLORADO...
  
CITY           SKY/WX    TMP DP  RH WIND       PRES   REMARKS
DURANGO        FAIR      70  34  26 NE5       30.19R                  
CORTEZ         FAIR      66  40  38 NE9       30.12R                  
PAGOSA SPRINGS FAIR      61  38  42 CALM      30.28R                  
TELLURIDE      FAIR      64  28  25 CALM      30.42R                  
WOLF CREEK PAS NOT AVBL                                               
$$

COZ009-010-012-014-032>034-037-058>063-180500-
...CENTRAL COLORADO...
  
CITY           SKY/WX    TMP DP  RH WIND       PRES   REMARKS
ASPEN          FAIR      59  37  44 S6        30.25R                  
BUENA VISTA    FAIR      59  36  41 NW6       30.26R                  
COPPER MTN     FAIR      59  32  36 W9        30.62R                  
BERTHOUD PASS  FAIR      50  36  57 NW20G32   30.63R                  
COTTONWOOD PAS NOT AVBL                                               
GUNNISON       FAIR      65  39  38 N7        30.26R                  
GRANBY         NOT AVBL                                               
KREMMLING      FAIR      61  32  33 CALM      30.21R                  
LEADVILLE      FAIR      57  33  40 NE5       30.43R                  
SALIDA         FAIR      73  29  20 W12       30.29R                  
SUNLIGHT       FAIR      54  21  28 SW12G20   30.51R                  
WILKERSON PASS FAIR      59  23  25 W8        30.57R                  
$$

COZ069>075-180500-
...SAN LUIS VALLEY/SANGRE DE CRISTO MOUNTAINS...
  
CITY           SKY/WX    TMP DP  RH WIND       PRES   REMARKS
ALAMOSA        FAIR      65  47  52 W6        30.22R                  
DEL NORTE      FAIR      64  50  61 W7        30.28R                  
LA VETA PASS   NOT AVBL                                               
SAGUACHE       FAIR      61  41  48 CALM      30.26R                  
$$

COZ035-036-038>040-180500-
...NORTHERN COLORADO FRONT RANGE...
  
CITY           SKY/WX    TMP DP  RH WIND       PRES   REMARKS
DENVER INTL AP FAIR      79  49  34 S12G20    29.99R                  
AURORA         FAIR      76  50  40 S14       30.01R                  
FRONT RANGE AP FAIR      75  50  41 SW5       30.01R                  
ERIE MUNI ARPT FAIR      79  46  31 S5        30.01R                  
BOULDER MUN AP FAIR      77  41  27 CALM      29.97R                  
CENTENNIAL     FAIR      78  50  37 S13       30.03R                  
BROOMFIELD     MOCLDY    77  48  36 SW6       30.02R                  
FORT COLLINS   FAIR      78  54  43 E3        29.97R                  
LONGMONT       FAIR      76  55  49 W3        29.98R                  
$$

COZ041-046-047-076>085-087-088-180500-
...PIKES PEAK/PALMER DIVIDE AND SOUTHERN FOOTHILLS...
  
CITY           SKY/WX    TMP DP  RH WIND       PRES   REMARKS
COLO. SPRINGS  FAIR      68  50  52 N12       30.08R                  
A. F. ACADEMY  FAIR      64  51  63 N7        30.10                   
SCHRIEVER AFB  NOT AVBL                                               
CHEYENNE MTN   NOT AVBL                                               
ELLICOTT         N/A    N/A N/A N/A E9        30.06R                  
FALCON         FAIR      65  46  51 CALM      30.15R                  
FORT CARSON    FAIR      72  47  40 W6        30.04                   
LIMON          FAIR      62  53  72 CALM      30.00R                  
MONUMENT HILL  FAIR      63  50  63 S7        30.17R                  
CANON CITY     NOT AVBL                                               
WALSENBURG     NOT AVBL                                               
TRINIDAD       FAIR      70  50  49 W13       30.03R                  
$$

COZ042>045-048>051-090-091-180500-
...NORTHEAST COLORADO...
  
CITY           SKY/WX    TMP DP  RH WIND       PRES   REMARKS
GREELEY ARPT   FAIR      78  56  46 E7        29.95R                  
AKRON          FAIR      74  53  48 S6        29.94R                  
BURLINGTON     FAIR      71  55  56 SE10      29.91R                  
WRAY           FAIR      72  50  46 SW6       29.87F                  
YUMA           FAIR      66  32  28 S8        29.90S                  
STERLING       FAIR      72  63  73 S8        29.86R                  
HOLYOKE        FAIR      75  61  60 S10       29.85S                  
FORT MORGAN    NOT AVBL                                               
$$

COZ086-089-092>099-180500-
...SOUTHEAST COLORADO...
  
CITY           SKY/WX    TMP DP  RH WIND       PRES   REMARKS
PUEBLO         FAIR      80  51  36 SE8       29.94R                  
LA JUNTA       FAIR      79  50  36 E8        29.91R                  
LAMAR          FAIR      79  54  41 E8        29.86R                  
SPRINGFIELD      N/A     80  52  37 SW15G25   29.92R                  
$$